Theta_e
301 300 299 298 295 294 295 295 300 301 302 303 303 303 303 303 303 304 311 313 315 316 317 317 318 322 322 322 322 321 320 319
299 299 298 297 295 294 295 300 301 302 302 302 303 303 303 303 303 303 305 311 314 316 317 318 319 321 322 322 322 321 321 319
298 298 297 296 295 294 295 302 302 302 303 303 303 303 302 302 303 303 303 305 312 316 318 318 319 320 321 320 321 320 319 319
298 297 297 296 295 294 296 302 302 303 303 303 303 302 302 301 302 303 303 303 309 314 317 318 319 318 317 317 317 320 319 318
298 297 297 296 295 295 297 302 303 303 303 303 303 303 302 301 301 302 303 303 305 313 316 317 317 318 318 317 316 317 318 318
299 297 296 295 296 296 297 302 303 303 304 304 304 303 303 303 302 302 303 303 304 309 313 315 317 318 318 318 317 316 318 318
300 298 296 296 300 298 298 302 303 303 303 304 304 304 304 305 304 304 305 306 306 309 312 313 315 315 315 315 316 316 317 316
301 299 297 297 302 302 303 303 303 303 303 303 304 304 305 305 305 307 307 309 310 311 313 313 313 313 315 315 315 315 314 314
302 301 298 297 303 303 303 303 303 302 300 302 303 304 305 305 306 307 309 309 310 311 312 312 313 313 312 312 312 313 313 311
302 301 299 297 302 303 302 302 302 301 297 298 303 303 304 305 305 306 306 308 309 310 311 311 310 310 311 311 311 311 308 308
302 301 300 298 297 301 302 302 301 300 298 295 297 303 304 304 305 305 306 307 307 307 307 309 308 309 309 310 310 309 307 307
302 301 301 299 298 297 298 300 301 300 299 296 295 296 302 303 304 305 305 305 307 308 307 308 308 307 306 306 307 307 307 307
302 301 301 299 298 298 297 296 297 297 297 297 295 294 294 297 301 304 304 304 304 304 305 305 305 305 305 305 305 305 305 304
302 301 301 300 299 298 296 296 296 296 296 295 295 294 294 294 294 298 302 303 304 304 304 304 305 305 305 305 304 303 302 300
302 302 301 301 300 299 297 297 297 296 296 295 295 295 295 294 294 294 293 297 303 304 304 304 304 304 304 304 303 301 300 298
303 302 302 301 301 301 300 299 299 298 297 297 296 296 296 295 295 294 294 294 293 294 298 301 301 299 299 300 299 297 295 295
304 303 303 303 302 302 302 302 301 301 301 300 299 299 298 297 296 296 295 295 294 294 293 293 293 294 295 296 296 295 294 294
303 303 302 305 305 304 302 302 302 301 301 301 301 301 300 300 300 300 298 297 297 296 295 294 293 293 293 293 293 292 292 292
302 302 302 305 305 302 304 306 305 303 302 302 301 301 301 301 301 301 301 300 300 298 297 296 295 293 293 292 293 293 293 293
303 301 301 304 303 302 303 305 305 305 305 304 303 302 302 303 304 304 304 303 303 301 299 298 297 296 294 293 293 293 294 294
Wind_Speed
11 10 8 8 9 8 8 7 5 7 6 4 5 4 2 1 3 4 6 11 13 9 5 2 15 19 16 17 17 19 20 21
8 8 7 6 7 7 6 5 6 6 6 6 5 3 1 2 3 4 6 7 14 10 5 3 11 19 18 15 15 15 18 11
6 5 6 5 5 5 4 4 5 7 7 7 6 5 3 1 3 5 8 8 13 14 12 9 13 13 18 18 16 7 8 10
6 5 5 5 6 3 2 4 5 7 8 8 9 8 6 3 2 5 9 10 10 13 14 12 15 15 13 10 9 15 13 11
6 5 5 4 3 3 3 3 5 6 7 8 10 10 8 7 6 7 9 10 11 13 13 13 13 11 9 8 8 9 9 11
7 5 5 2 2 2 3 4 5 6 8 8 10 11 11 11 10 12 11 11 13 13 12 12 11 10 8 9 8 7 6 8
7 5 4 2 1 4 8 6 5 6 6 8 10 12 12 13 12 12 13 13 13 13 12 11 10 8 6 6 8 9 9 6
7 5 4 3 4 5 8 7 5 5 5 6 8 12 12 12 13 14 13 14 14 14 13 12 10 8 11 10 8 7 6 5
9 7 6 6 6 8 7 6 4 4 5 5 7 7 11 11 11 11 12 12 12 11 13 12 11 12 10 8 8 7 5 4
9 8 6 7 7 7 7 5 4 4 4 4 4 5 7 8 8 9 10 9 9 10 10 9 10 7 6 8 8 7 6 4
10 11 9 8 8 8 6 5 4 3 4 3 4 5 6 6 6 7 8 9 9 9 7 6 7 6 7 7 9 8 7 6
11 10 10 9 8 8 7 5 4 3 2 2 3 4 5 6 6 6 7 8 7 10 9 9 9 8 5 5 7 6 7 8
12 12 12 11 9 8 6 8 6 4 4 3 2 2 3 4 6 8 8 7 7 8 8 7 7 7 7 6 7 8 9 8
12 12 12 11 10 8 9 9 8 7 5 4 4 3 3 5 6 7 8 11 11 10 10 10 9 9 10 10 10 10 10 10
13 13 12 11 10 9 12 11 10 9 8 8 6 6 5 5 6 7 8 9 11 13 13 13 13 13 13 13 13 12 12 12
12 12 11 11 11 12 12 13 11 10 10 10 10 9 8 8 8 8 9 10 11 13 15 15 14 13 14 14 14 13 13 15
13 14 12 12 12 13 15 15 15 15 14 13 13 12 12 12 12 11 10 12 13 13 14 15 14 16 17 17 17 17 17 19
16 15 14 14 13 13 15 17 17 17 15 16 16 16 16 16 16 16 16 17 17 16 16 16 15 15 18 19 20 20 22 22
19 20 18 18 14 11 15 16 16 16 15 16 17 17 17 17 18 19 20 21 22 21 21 21 20 19 19 20 23 25 26 24
21 23 21 21 18 18 17 15 13 13 14 13 15 16 17 18 19 20 22 24 25 24 26 24 25 25 25 26 29 29 28 26
Wind_Direction
314 320 325 327 333 348 354 358 17 17 34 27 17 16 331 277 226 183 171 190 178 174 167 230 203 196 197 209 205 207 203 210
308 318 319 332 336 351 5 16 24 29 27 27 32 359 16 186 182 189 196 182 176 175 175 227 198 196 195 188 195 206 207 190
308 315 318 328 353 354 17 58 36 29 23 27 39 36 6 42 163 181 196 184 161 171 155 162 141 175 198 210 209 206 192 183
299 298 312 340 336 3 38 71 45 37 33 32 42 31 42 49 129 166 184 180 173 154 157 160 144 145 141 149 148 172 190 218
277 290 290 319 338 340 98 100 62 57 48 52 59 49 50 65 83 144 162 171 169 164 158 163 160 164 171 177 189 221 225 222
256 268 271 293 336 150 139 122 97 70 54 55 67 67 65 65 80 104 120 140 155 157 153 152 158 155 165 172 189 190 172 168
219 242 240 191 39 152 153 146 109 80 66 59 79 78 74 80 91 100 107 118 127 136 144 151 151 149 164 149 146 149 145 160
195 207 199 169 137 148 150 150 135 111 100 84 79 102 91 90 98 101 109 118 126 134 142 150 153 152 145 138 144 150 154 169
192 195 199 177 157 158 154 147 138 116 107 118 105 102 114 110 105 113 116 128 133 140 141 145 147 148 150 164 162 178 195 174
194 191 193 190 180 172 168 158 148 129 111 127 145 128 125 124 136 133 133 141 140 143 145 156 158 145 155 162 159 175 174 194
203 200 191 196 195 194 193 186 170 152 125 120 131 160 157 147 146 147 158 168 177 172 182 179 161 178 189 186 201 203 222 227
206 204 194 193 200 201 208 199 206 192 162 146 135 153 175 192 189 179 179 177 182 189 202 203 196 201 228 229 224 226 241 251
201 199 202 199 200 205 200 215 219 224 232 229 213 199 184 194 210 214 213 204 197 197 203 212 222 223 227 240 242 246 254 254
195 197 203 209 208 202 195 221 225 227 230 236 247 244 242 234 219 222 229 230 228 230 229 229 236 239 244 252 254 255 259 261
205 206 207 209 213 208 216 223 226 230 238 243 239 248 255 257 263 255 240 240 241 242 246 247 247 252 258 256 258 254 255 259
223 225 221 221 218 221 231 240 243 243 244 251 254 256 257 256 258 264 266 263 257 252 250 251 251 250 248 249 251 251 252 255
235 236 228 233 230 232 237 245 250 254 255 260 263 265 267 268 267 266 263 270 271 267 266 265 264 260 259 257 256 258 256 254
244 244 240 240 236 233 240 245 249 254 258 262 263 265 267 269 270 270 270 265 265 268 271 270 267 267 270 269 267 262 259 257
240 243 244 241 243 254 253 249 250 254 254 257 261 264 267 271 275 276 271 268 268 267 266 264 263 261 258 261 264 265 267 270
241 241 238 240 247 273 258 245 246 247 255 258 259 261 264 267 272 276 279 279 278 270 266 266 266 264 259 256 258 264 267 271